Time,TemperatureF,DewpointF,PressureIn,WindDirection,WindDirectionDegrees,WindSpeedMPH,WindSpeedGustMPH,Humidity,HourlyPrecipIn,Conditions,Clouds,dailyrainin,SoftwareType,DateUTC
2013-04-02 00:00:00,24.1,13.0,29.69,North,9,0.0,4.0,62,0.00,,,0.00,Weather View 32 v70,2013-04-02 08:00:00,
2013-04-02 00:05:00,23.7,12.9,29.69,North,9,0.0,4.0,63,0.00,,,0.00,Weather View 32 v70,2013-04-02 08:05:00,
2013-04-02 00:10:00,23.3,12.2,29.70,North,9,0.0,4.0,62,0.00,,,0.00,Weather View 32 v70,2013-04-02 08:10:00,
2013-04-02 00:15:00,22.6,10.8,29.70,North,9,0.0,4.0,60,0.00,,,0.00,Weather View 32 v70,2013-04-02 08:15:00,
2013-04-02 00:20:00,21.9,11.2,29.70,North,9,0.0,4.0,63,0.00,,,0.00,Weather View 32 v70,2013-04-02 08:20:00,
2013-04-02 00:25:00,21.4,10.4,29.70,North,9,0.0,1.0,62,0.00,,,0.00,Weather View 32 v70,2013-04-02 08:25:00,
2013-04-02 00:30:00,20.8,10.5,29.70,North,9,0.0,1.0,64,0.00,,,0.00,Weather View 32 v70,2013-04-02 08:30:00,
2013-04-02 00:35:00,20.1,10.2,29.70,North,9,0.0,1.0,65,0.00,,,0.00,Weather View 32 v70,2013-04-02 08:35:00,
2013-04-02 00:40:00,19.6,10.1,29.70,North,9,0.0,1.0,66,0.00,,,0.00,Weather View 32 v70,2013-04-02 08:40:00,
2013-04-02 00:45:00,19.1,10.3,29.70,North,9,0.0,1.0,68,0.00,,,0.00,Weather View 32 v70,2013-04-02 08:45:00,
2013-04-02 00:50:00,18.6,10.4,29.70,North,9,0.0,1.0,70,0.00,,,0.00,Weather View 32 v70,2013-04-02 08:50:00,
2013-04-02 00:55:00,18.1,10.3,29.70,North,9,0.0,0.0,71,0.00,,,0.00,Weather View 32 v70,2013-04-02 08:55:00,
2013-04-02 01:00:00,17.7,10.5,29.70,North,9,0.0,0.0,73,0.00,,,0.00,Weather View 32 v70,2013-04-02 09:00:00,
2013-04-02 01:05:00,17.3,10.4,29.70,North,9,0.0,0.0,74,0.00,,,0.00,Weather View 32 v70,2013-04-02 09:05:00,
2013-04-02 01:10:00,17.3,10.7,29.70,North,9,0.0,0.0,75,0.00,,,0.00,Weather View 32 v70,2013-04-02 09:10:00,
2013-04-02 01:15:00,17.3,10.4,29.70,North,9,0.0,0.0,74,0.00,,,0.00,Weather View 32 v70,2013-04-02 09:15:00,
2013-04-02 01:20:00,17.4,10.8,29.71,North,9,0.0,0.0,75,0.00,,,0.00,Weather View 32 v70,2013-04-02 09:20:00,
2013-04-02 01:25:00,17.3,10.7,29.71,North,9,0.0,0.0,75,0.00,,,0.00,Weather View 32 v70,2013-04-02 09:25:00,
2013-04-02 01:30:00,17.9,11.6,29.71,North,9,0.0,1.0,76,0.00,,,0.00,Weather View 32 v70,2013-04-02 09:30:00,
2013-04-02 01:35:00,18.1,10.9,29.71,North,9,0.0,1.0,73,0.00,,,0.00,Weather View 32 v70,2013-04-02 09:35:00,
2013-04-02 01:40:00,18.2,11.6,29.71,North,9,0.0,1.0,75,0.00,,,0.00,Weather View 32 v70,2013-04-02 09:40:00,
2013-04-02 01:45:00,18.6,11.7,29.71,North,9,0.0,1.0,74,0.00,,,0.00,Weather View 32 v70,2013-04-02 09:45:00,
2013-04-02 01:50:00,19.0,12.1,29.72,North,9,0.0,1.0,74,0.00,,,0.00,Weather View 32 v70,2013-04-02 09:50:00,
2013-04-02 01:55:00,19.3,12.1,29.72,North,9,0.0,1.0,73,0.00,,,0.00,Weather View 32 v70,2013-04-02 09:55:00,
2013-04-02 02:00:00,19.6,12.4,29.72,North,9,0.0,1.0,73,0.00,,,0.00,Weather View 32 v70,2013-04-02 10:00:00,
2013-04-02 02:05:00,19.9,12.3,29.72,North,9,0.0,1.0,72,0.00,,,0.00,Weather View 32 v70,2013-04-02 10:05:00,
2013-04-02 02:11:00,19.8,11.9,29.72,North,9,0.0,1.0,71,0.00,,,0.00,Weather View 32 v70,2013-04-02 10:11:00,
2013-04-02 02:16:00,19.7,12.1,29.72,North,9,0.0,1.0,72,0.00,,,0.00,Weather View 32 v70,2013-04-02 10:16:00,
2013-04-02 02:21:00,19.9,12.6,29.72,North,9,0.0,1.0,73,0.00,,,0.00,Weather View 32 v70,2013-04-02 10:21:00,
2013-04-02 02:26:00,20.1,12.5,29.72,North,9,0.0,1.0,72,0.00,,,0.00,Weather View 32 v70,2013-04-02 10:26:00,
2013-04-02 02:31:00,20.2,12.6,29.72,North,9,0.0,1.0,72,0.00,,,0.00,Weather View 32 v70,2013-04-02 10:31:00,
2013-04-02 02:36:00,20.5,12.6,29.72,North,9,0.0,1.0,71,0.00,,,0.00,Weather View 32 v70,2013-04-02 10:36:00,
2013-04-02 02:41:00,21.0,13.4,29.72,North,10,0.0,3.0,72,0.00,,,0.00,Weather View 32 v70,2013-04-02 10:41:00,
2013-04-02 02:46:00,21.2,13.3,29.72,North,10,1.0,3.0,71,0.00,,,0.00,Weather View 32 v70,2013-04-02 10:46:00,
2013-04-02 02:51:00,21.3,13.0,29.73,North,10,0.0,3.0,70,0.00,,,0.00,Weather View 32 v70,2013-04-02 10:51:00,
2013-04-02 02:56:00,21.4,13.1,29.72,North,10,0.0,3.0,70,0.00,,,0.00,Weather View 32 v70,2013-04-02 10:56:00,
2013-04-02 03:01:00,21.5,13.2,29.73,North,10,0.0,3.0,70,0.00,,,0.00,Weather View 32 v70,2013-04-02 11:01:00,
2013-04-02 03:06:00,21.7,13.4,29.72,NNE,12,0.0,3.0,70,0.00,,,0.00,Weather View 32 v70,2013-04-02 11:06:00,
2013-04-02 03:11:00,21.9,13.3,29.73,NNE,12,1.0,3.0,69,0.00,,,0.00,Weather View 32 v70,2013-04-02 11:11:00,
2013-04-02 03:16:00,22.2,13.6,29.73,NNE,22,1.0,5.0,69,0.00,,,0.00,Weather View 32 v70,2013-04-02 11:16:00,
2013-04-02 03:21:00,22.3,13.3,29.73,NNE,22,0.0,5.0,68,0.00,,,0.00,Weather View 32 v70,2013-04-02 11:21:00,
2013-04-02 03:26:00,22.2,13.2,29.72,NNE,22,0.0,5.0,68,0.00,,,0.00,Weather View 32 v70,2013-04-02 11:26:00,
2013-04-02 03:30:00,22.1,13.2,29.73,NNE,22,0.0,5.0,68,0.00,,,0.00,Weather View 32 v70,2013-04-02 11:30:00,
2013-04-02 03:36:00,22.0,13.1,29.73,NNE,22,0.0,5.0,68,0.00,,,0.00,Weather View 32 v70,2013-04-02 11:36:00,
2013-04-02 03:40:00,21.8,12.9,29.72,NNE,22,0.0,5.0,68,0.00,,,0.00,Weather View 32 v70,2013-04-02 11:40:00,
2013-04-02 03:46:00,21.7,12.8,29.73,NNE,22,0.0,5.0,68,0.00,,,0.00,Weather View 32 v70,2013-04-02 11:46:00,
2013-04-02 03:51:00,21.5,12.2,29.73,NNE,22,0.0,5.0,67,0.00,,,0.00,Weather View 32 v70,2013-04-02 11:51:00,
2013-04-02 03:55:00,21.2,12.3,29.72,NNE,22,0.0,5.0,68,0.00,,,0.00,Weather View 32 v70,2013-04-02 11:55:00,
2013-04-02 04:00:00,21.1,12.2,29.73,NNE,22,0.0,5.0,68,0.00,,,0.00,Weather View 32 v70,2013-04-02 12:00:00,
2013-04-02 04:01:00,20.9,12.0,29.72,NNE,22,0.0,5.0,68,0.00,,,0.00,Weather View 32 v70,2013-04-02 12:01:00,
2013-04-02 04:05:00,20.6,12.0,29.72,NNE,22,0.0,5.0,69,0.00,,,0.00,Weather View 32 v70,2013-04-02 12:05:00,
2013-04-02 04:10:00,20.2,11.7,29.72,NNE,22,0.0,5.0,69,0.00,,,0.00,Weather View 32 v70,2013-04-02 12:10:00,
2013-04-02 04:15:00,20.0,11.5,29.73,NNE,22,0.0,2.0,69,0.00,,,0.00,Weather View 32 v70,2013-04-02 12:15:00,
2013-04-02 04:20:00,19.7,11.2,29.73,NNE,22,0.0,1.0,69,0.00,,,0.00,Weather View 32 v70,2013-04-02 12:20:00,
2013-04-02 04:25:00,19.4,10.9,29.73,NNE,22,0.0,1.0,69,0.00,,,0.00,Weather View 32 v70,2013-04-02 12:25:00,
2013-04-02 04:30:00,19.2,10.7,29.73,NNE,22,0.0,1.0,69,0.00,,,0.00,Weather View 32 v70,2013-04-02 12:30:00,
2013-04-02 04:35:00,19.0,10.5,29.73,NNE,22,0.0,1.0,69,0.00,,,0.00,Weather View 32 v70,2013-04-02 12:35:00,
2013-04-02 04:40:00,18.7,10.5,29.73,NNE,22,0.0,1.0,70,0.00,,,0.00,Weather View 32 v70,2013-04-02 12:40:00,
2013-04-02 04:45:00,18.4,9.9,29.73,NNE,22,0.0,1.0,69,0.00,,,0.00,Weather View 32 v70,2013-04-02 12:45:00,
2013-04-02 04:50:00,18.2,10.4,29.73,NNE,22,0.0,1.0,71,0.00,,,0.00,Weather View 32 v70,2013-04-02 12:50:00,
2013-04-02 04:55:00,17.8,9.7,29.73,NNE,22,0.0,1.0,70,0.00,,,0.00,Weather View 32 v70,2013-04-02 12:55:00,
2013-04-02 05:00:00,17.1,9.3,29.74,NNE,22,0.0,1.0,71,0.00,,,0.00,Weather View 32 v70,2013-04-02 13:00:00,
2013-04-02 05:05:00,16.9,9.8,29.73,NNE,22,0.0,1.0,73,0.00,,,0.00,Weather View 32 v70,2013-04-02 13:05:00,
2013-04-02 05:10:00,17.0,9.8,29.74,NNE,22,0.0,1.0,73,0.00,,,0.00,Weather View 32 v70,2013-04-02 13:10:00,
2013-04-02 05:15:00,17.1,10.2,29.74,NNE,22,0.0,1.0,74,0.00,,,0.00,Weather View 32 v70,2013-04-02 13:15:00,
2013-04-02 05:20:00,17.5,10.6,29.74,NNE,22,0.0,1.0,74,0.00,,,0.00,Weather View 32 v70,2013-04-02 13:20:00,
2013-04-02 05:25:00,17.8,10.6,29.73,NNE,22,0.0,1.0,73,0.00,,,0.00,Weather View 32 v70,2013-04-02 13:25:00,
2013-04-02 05:30:00,17.6,9.8,29.73,NNE,22,0.0,1.0,71,0.00,,,0.00,Weather View 32 v70,2013-04-02 13:30:00,
2013-04-02 05:35:00,17.4,9.9,29.74,NNE,22,0.0,1.0,72,0.00,,,0.00,Weather View 32 v70,2013-04-02 13:35:00,
2013-04-02 05:40:00,17.2,9.7,29.74,NNE,22,0.0,1.0,72,0.00,,,0.00,Weather View 32 v70,2013-04-02 13:40:00,
2013-04-02 05:45:00,16.6,9.2,29.74,NNE,22,0.0,1.0,72,0.00,,,0.00,Weather View 32 v70,2013-04-02 13:45:00,
2013-04-02 05:50:00,15.5,7.8,29.74,NNE,22,0.0,1.0,71,0.00,,,0.00,Weather View 32 v70,2013-04-02 13:50:00,
2013-04-02 05:55:00,14.6,5.6,29.74,NNE,22,0.0,1.0,67,0.00,,,0.00,Weather View 32 v70,2013-04-02 13:55:00,
2013-04-02 06:00:00,13.9,5.0,29.74,NNE,22,0.0,1.0,67,0.00,,,0.00,Weather View 32 v70,2013-04-02 14:00:00,
2013-04-02 06:05:00,13.0,3.8,29.75,NNE,22,0.0,1.0,66,0.00,,,0.00,Weather View 32 v70,2013-04-02 14:05:00,
2013-04-02 06:10:00,12.4,3.9,29.74,NNE,22,0.0,1.0,68,0.00,,,0.00,Weather View 32 v70,2013-04-02 14:10:00,
2013-04-02 06:15:00,12.0,3.5,29.74,NNE,22,0.0,1.0,68,0.00,,,0.00,Weather View 32 v70,2013-04-02 14:15:00,
2013-04-02 06:20:00,11.4,3.5,29.75,NNE,22,0.0,1.0,70,0.00,,,0.00,Weather View 32 v70,2013-04-02 14:20:00,
2013-04-02 06:25:00,10.9,2.4,29.74,NNE,22,0.0,0.0,68,0.00,,,0.00,Weather View 32 v70,2013-04-02 14:25:00,
2013-04-02 06:30:00,10.4,2.6,29.75,NNE,22,0.0,0.0,70,0.00,,,0.00,Weather View 32 v70,2013-04-02 14:30:00,
2013-04-02 06:35:00,10.0,1.6,29.74,NNE,22,0.0,0.0,68,0.00,,,0.00,Weather View 32 v70,2013-04-02 14:35:00,
2013-04-02 06:40:00,9.7,1.9,29.75,NNE,22,0.0,0.0,70,0.00,,,0.00,Weather View 32 v70,2013-04-02 14:40:00,
2013-04-02 06:45:00,9.3,1.8,29.75,NNE,22,0.0,0.0,71,0.00,,,0.00,Weather View 32 v70,2013-04-02 14:45:00,
2013-04-02 06:50:00,9.1,1.9,29.74,NNE,22,0.0,0.0,72,0.00,,,0.00,Weather View 32 v70,2013-04-02 14:50:00,
2013-04-02 06:55:00,8.8,1.6,29.75,NNE,22,0.0,0.0,72,0.00,,,0.00,Weather View 32 v70,2013-04-02 14:55:00,
2013-04-02 07:00:00,8.5,0.7,29.74,NNE,22,0.0,0.0,70,0.00,,,0.00,Weather View 32 v70,2013-04-02 15:00:00,
2013-04-02 07:05:00,8.2,0.8,29.75,NNE,22,0.0,0.0,71,0.00,,,0.00,Weather View 32 v70,2013-04-02 15:05:00,
2013-04-02 07:10:00,7.9,0.5,29.75,NNE,22,0.0,0.0,71,0.00,,,0.00,Weather View 32 v70,2013-04-02 15:10:00,
2013-04-02 07:15:00,7.7,0.6,29.75,NNE,22,0.0,0.0,72,0.00,,,0.00,Weather View 32 v70,2013-04-02 15:15:00,
2013-04-02 07:20:00,7.6,0.5,29.75,NNE,22,0.0,0.0,72,0.00,,,0.00,Weather View 32 v70,2013-04-02 15:20:00,
2013-04-02 07:25:00,7.4,0.3,29.75,NNE,22,0.0,0.0,72,0.00,,,0.00,Weather View 32 v70,2013-04-02 15:25:00,
2013-04-02 07:30:00,7.3,0.5,29.75,NNE,22,0.0,0.0,73,0.00,,,0.00,Weather View 32 v70,2013-04-02 15:30:00,
2013-04-02 07:35:00,7.2,0.1,29.75,NNE,22,0.0,0.0,72,0.00,,,0.00,Weather View 32 v70,2013-04-02 15:35:00,
2013-04-02 07:40:00,7.2,0.1,29.75,NNE,22,0.0,0.0,72,0.00,,,0.00,Weather View 32 v70,2013-04-02 15:40:00,
2013-04-02 07:45:00,7.1,0.3,29.75,NNE,22,0.0,0.0,73,0.00,,,0.00,Weather View 32 v70,2013-04-02 15:45:00,
2013-04-02 07:51:00,7.1,0.3,29.75,NNE,22,0.0,0.0,73,0.00,,,0.00,Weather View 32 v70,2013-04-02 15:51:00,
2013-04-02 07:56:00,7.1,0.3,29.75,NNE,22,0.0,0.0,73,0.00,,,0.00,Weather View 32 v70,2013-04-02 15:56:00,
2013-04-02 08:02:00,7.4,0.9,29.75,NNE,22,0.0,0.0,74,0.00,,,0.00,Weather View 32 v70,2013-04-02 16:02:00,
2013-04-02 08:07:00,7.7,1.2,29.75,NNE,22,0.0,0.0,74,0.00,,,0.00,Weather View 32 v70,2013-04-02 16:07:00,
2013-04-02 08:12:00,7.9,1.3,29.75,NNE,22,0.0,0.0,74,0.00,,,0.00,Weather View 32 v70,2013-04-02 16:12:00,
2013-04-02 08:17:00,8.2,1.6,29.75,NNE,22,0.0,0.0,74,0.00,,,0.00,Weather View 32 v70,2013-04-02 16:17:00,
2013-04-02 08:22:00,8.8,2.5,29.75,NNE,22,0.0,0.0,75,0.00,,,0.00,Weather View 32 v70,2013-04-02 16:22:00,
2013-04-02 08:27:00,9.5,3.2,29.76,NNE,22,0.0,0.0,75,0.00,,,0.00,Weather View 32 v70,2013-04-02 16:27:00,
2013-04-02 08:32:00,10.3,4.0,29.76,NNE,22,0.0,0.0,75,0.00,,,0.00,Weather View 32 v70,2013-04-02 16:32:00,
2013-04-02 08:37:00,11.1,4.7,29.76,NNE,22,0.0,0.0,75,0.00,,,0.00,Weather View 32 v70,2013-04-02 16:37:00,
2013-04-02 08:42:00,12.3,6.2,29.76,NNE,22,0.0,0.0,76,0.00,,,0.00,Weather View 32 v70,2013-04-02 16:42:00,
2013-04-02 08:47:00,13.8,7.6,29.76,NNE,22,0.0,0.0,76,0.00,,,0.00,Weather View 32 v70,2013-04-02 16:47:00,
2013-04-02 08:52:00,15.0,8.2,29.76,NNE,22,0.0,0.0,74,0.00,,,0.00,Weather View 32 v70,2013-04-02 16:52:00,
2013-04-02 08:57:00,15.8,8.1,29.76,NNE,22,0.0,0.0,71,0.00,,,0.00,Weather View 32 v70,2013-04-02 16:57:00,
2013-04-02 09:03:00,16.3,7.9,29.76,NNE,22,0.0,1.0,69,0.00,,,0.00,Weather View 32 v70,2013-04-02 17:03:00,
2013-04-02 09:08:00,16.6,7.9,29.76,NNE,22,0.0,1.0,68,0.00,,,0.00,Weather View 32 v70,2013-04-02 17:08:00,
2013-04-02 09:13:00,17.2,7.8,29.76,NNE,22,0.0,1.0,66,0.00,,,0.00,Weather View 32 v70,2013-04-02 17:13:00,
2013-04-02 09:18:00,17.6,7.8,29.76,NNE,22,0.0,1.0,65,0.00,,,0.00,Weather View 32 v70,2013-04-02 17:18:00,
2013-04-02 09:23:00,18.0,8.2,29.76,NNE,22,0.0,1.0,65,0.00,,,0.00,Weather View 32 v70,2013-04-02 17:23:00,
2013-04-02 09:28:00,18.2,8.1,29.76,NNE,22,0.0,1.0,64,0.00,,,0.00,Weather View 32 v70,2013-04-02 17:28:00,
2013-04-02 09:33:00,18.4,7.9,29.75,NNE,22,0.0,1.0,63,0.00,,,0.00,Weather View 32 v70,2013-04-02 17:33:00,
2013-04-02 09:38:00,19.0,8.5,29.76,NNE,22,0.0,1.0,63,0.00,,,0.00,Weather View 32 v70,2013-04-02 17:38:00,
2013-04-02 09:43:00,19.7,8.8,29.76,NNE,22,1.0,2.0,62,0.00,,,0.00,Weather View 32 v70,2013-04-02 17:43:00,
2013-04-02 09:49:00,20.1,8.8,29.76,NNE,22,0.0,2.0,61,0.00,,,0.00,Weather View 32 v70,2013-04-02 17:49:00,
2013-04-02 09:54:00,20.7,9.0,29.76,NNE,22,0.0,2.0,60,0.00,,,0.00,Weather View 32 v70,2013-04-02 17:54:00,
2013-04-02 09:59:00,21.2,9.1,29.76,NNE,22,0.0,2.0,59,0.00,,,0.00,Weather View 32 v70,2013-04-02 17:59:00,
2013-04-02 10:04:00,21.8,9.3,29.76,NNE,22,0.0,2.0,58,0.00,,,0.00,Weather View 32 v70,2013-04-02 18:04:00,
2013-04-02 10:09:00,22.1,9.2,29.76,NNE,22,0.0,2.0,57,0.00,,,0.00,Weather View 32 v70,2013-04-02 18:09:00,
2013-04-02 10:14:00,22.0,9.1,29.76,NNE,22,1.0,3.0,57,0.00,,,0.00,Weather View 32 v70,2013-04-02 18:14:00,
2013-04-02 10:19:00,21.9,9.0,29.76,NNE,22,2.0,3.0,57,0.00,,,0.00,Weather View 32 v70,2013-04-02 18:19:00,
2013-04-02 10:24:00,22.1,9.2,29.76,NNE,22,2.0,3.0,57,0.00,,,0.00,Weather View 32 v70,2013-04-02 18:24:00,
2013-04-02 10:29:00,22.4,9.1,29.76,NNE,22,0.0,3.0,56,0.00,,,0.00,Weather View 32 v70,2013-04-02 18:29:00,
2013-04-02 10:34:00,22.7,9.4,29.76,NNE,22,0.0,3.0,56,0.00,,,0.00,Weather View 32 v70,2013-04-02 18:34:00,
2013-04-02 10:39:00,23.0,9.2,29.76,NNE,22,1.0,3.0,55,0.00,,,0.00,Weather View 32 v70,2013-04-02 18:39:00,
2013-04-02 10:44:00,23.4,9.6,29.76,NNE,22,0.0,3.0,55,0.00,,,0.00,Weather View 32 v70,2013-04-02 18:44:00,
2013-04-02 10:49:00,23.9,9.7,29.76,NNE,22,0.0,3.0,54,0.00,,,0.00,Weather View 32 v70,2013-04-02 18:49:00,
2013-04-02 10:54:00,24.3,9.6,29.76,NNE,22,1.0,3.0,53,0.00,,,0.00,Weather View 32 v70,2013-04-02 18:54:00,
2013-04-02 10:59:00,24.4,9.7,29.76,NNE,22,1.0,3.0,53,0.00,,,0.00,Weather View 32 v70,2013-04-02 18:59:00,
2013-04-02 11:04:00,24.9,10.2,29.76,NNE,22,2.0,3.0,53,0.00,,,0.00,Weather View 32 v70,2013-04-02 19:04:00,
2013-04-02 11:09:00,24.9,9.8,29.76,NNE,12,0.0,3.0,52,0.00,,,0.00,Weather View 32 v70,2013-04-02 19:09:00,
2013-04-02 11:14:00,25.0,10.3,29.76,NNE,12,1.0,3.0,53,0.00,,,0.00,Weather View 32 v70,2013-04-02 19:14:00,
2013-04-02 11:19:00,25.5,10.3,29.76,NNE,12,0.0,3.0,52,0.00,,,0.00,Weather View 32 v70,2013-04-02 19:19:00,
2013-04-02 11:24:00,26.1,10.4,29.76,NNE,13,0.0,3.0,51,0.00,,,0.00,Weather View 32 v70,2013-04-02 19:24:00,
2013-04-02 11:29:00,26.5,11.2,29.76,NNE,13,0.0,3.0,52,0.00,,,0.00,Weather View 32 v70,2013-04-02 19:29:00,
2013-04-02 11:35:00,26.8,11.1,29.76,NNE,15,1.0,3.0,51,0.00,,,0.00,Weather View 32 v70,2013-04-02 19:35:00,
2013-04-02 11:40:00,27.2,11.5,29.76,NNE,15,0.0,3.0,51,0.00,,,0.00,Weather View 32 v70,2013-04-02 19:40:00,
2013-04-02 11:45:00,27.8,11.6,29.76,NNE,15,0.0,3.0,50,0.00,,,0.00,Weather View 32 v70,2013-04-02 19:45:00,
2013-04-02 11:50:00,28.1,11.8,29.76,NNE,15,0.0,3.0,50,0.00,,,0.00,Weather View 32 v70,2013-04-02 19:50:00,
2013-04-02 11:55:00,28.5,12.2,29.76,NNE,15,0.0,3.0,50,0.00,,,0.00,Weather View 32 v70,2013-04-02 19:55:00,
2013-04-02 12:00:00,28.9,12.1,29.77,NNE,15,0.0,3.0,49,0.00,,,0.00,Weather View 32 v70,2013-04-02 20:00:00,
2013-04-02 12:05:00,28.9,11.7,29.77,NNE,15,0.0,3.0,48,0.00,,,0.00,Weather View 32 v70,2013-04-02 20:05:00,
2013-04-02 12:10:00,29.0,11.8,29.77,NNE,15,1.0,2.0,48,0.00,,,0.00,Weather View 32 v70,2013-04-02 20:10:00,
2013-04-02 12:15:00,29.0,11.8,29.77,NNE,15,0.0,3.0,48,0.00,,,0.00,Weather View 32 v70,2013-04-02 20:15:00,
2013-04-02 12:20:00,29.0,11.8,29.77,NNE,15,0.0,3.0,48,0.00,,,0.00,Weather View 32 v70,2013-04-02 20:20:00,
2013-04-02 12:25:00,29.0,11.8,29.76,West,280,1.0,4.0,48,0.00,,,0.00,Weather View 32 v70,2013-04-02 20:25:00,
2013-04-02 12:30:00,29.2,11.9,29.76,West,280,1.0,4.0,48,0.00,,,0.00,Weather View 32 v70,2013-04-02 20:30:00,
2013-04-02 12:36:00,29.5,12.2,29.77,West,280,0.0,4.0,48,0.00,,,0.00,Weather View 32 v70,2013-04-02 20:36:00,
2013-04-02 12:40:00,29.8,13.0,29.76,West,280,0.0,4.0,49,0.00,,,0.00,Weather View 32 v70,2013-04-02 20:40:00,
2013-04-02 12:45:00,30.2,12.9,29.77,West,280,1.0,4.0,48,0.00,,,0.00,Weather View 32 v70,2013-04-02 20:45:00,
2013-04-02 12:50:00,30.5,12.7,29.77,West,275,2.0,4.0,47,0.00,,,0.00,Weather View 32 v70,2013-04-02 20:50:00,
2013-04-02 12:55:00,30.8,12.4,29.77,West,275,0.0,4.0,46,0.00,,,0.00,Weather View 32 v70,2013-04-02 20:55:00,
2013-04-02 13:00:00,31.2,12.8,29.77,West,275,0.0,4.0,46,0.00,,,0.00,Weather View 32 v70,2013-04-02 21:00:00,
2013-04-02 13:05:00,31.1,12.7,29.77,West,275,0.0,4.0,46,0.00,,,0.00,Weather View 32 v70,2013-04-02 21:05:00,
2013-04-02 13:10:00,31.6,13.2,29.76,West,275,0.0,4.0,46,0.00,,,0.00,Weather View 32 v70,2013-04-02 21:10:00,
2013-04-02 13:16:00,32.0,12.5,29.76,West,275,0.0,4.0,44,0.00,,,0.00,Weather View 32 v70,2013-04-02 21:16:00,
2013-04-02 13:21:00,32.0,13.0,29.76,West,275,2.0,4.0,45,0.00,,,0.00,Weather View 32 v70,2013-04-02 21:21:00,
2013-04-02 13:25:00,31.8,12.4,29.77,West,275,0.0,3.0,44,0.00,,,0.00,Weather View 32 v70,2013-04-02 21:25:00,
2013-04-02 13:31:00,31.9,13.0,29.76,West,275,0.0,3.0,45,0.00,,,0.00,Weather View 32 v70,2013-04-02 21:31:00,
2013-04-02 13:36:00,32.3,13.3,29.76,West,275,1.0,3.0,45,0.00,,,0.00,Weather View 32 v70,2013-04-02 21:36:00,
2013-04-02 13:42:00,32.3,12.3,29.76,West,275,0.0,3.0,43,0.00,,,0.00,Weather View 32 v70,2013-04-02 21:42:00,
2013-04-02 13:47:00,32.4,13.4,29.76,West,275,0.0,3.0,45,0.00,,,0.00,Weather View 32 v70,2013-04-02 21:47:00,
2013-04-02 13:52:00,33.2,13.1,29.77,West,270,0.0,3.0,43,0.00,,,0.00,Weather View 32 v70,2013-04-02 21:52:00,
2013-04-02 13:57:00,33.2,13.1,29.77,West,270,1.0,3.0,43,0.00,,,0.00,Weather View 32 v70,2013-04-02 21:57:00,
2013-04-02 14:02:00,33.1,12.5,29.77,West,270,0.0,3.0,42,0.00,,,0.00,Weather View 32 v70,2013-04-02 22:02:00,
2013-04-02 14:07:00,33.5,12.8,29.77,West,270,0.0,3.0,42,0.00,,,0.00,Weather View 32 v70,2013-04-02 22:07:00,
2013-04-02 14:12:00,33.9,13.7,29.77,West,270,2.0,3.0,43,0.00,,,0.00,Weather View 32 v70,2013-04-02 22:12:00,
2013-04-02 14:17:00,33.9,13.2,29.76,West,270,1.0,3.0,42,0.00,,,0.00,Weather View 32 v70,2013-04-02 22:17:00,
2013-04-02 14:22:00,33.9,14.3,29.77,West,270,0.0,3.0,44,0.00,,,0.00,Weather View 32 v70,2013-04-02 22:22:00,
2013-04-02 14:27:00,34.0,13.8,29.76,West,270,1.0,3.0,43,0.00,,,0.00,Weather View 32 v70,2013-04-02 22:27:00,
2013-04-02 14:32:00,34.0,13.3,29.76,West,270,0.0,3.0,42,0.00,,,0.00,Weather View 32 v70,2013-04-02 22:32:00,
2013-04-02 14:38:00,34.2,13.5,29.76,West,270,0.0,3.0,42,0.00,,,0.00,Weather View 32 v70,2013-04-02 22:38:00,
2013-04-02 14:43:00,34.5,13.2,29.76,West,270,0.0,3.0,41,0.00,,,0.00,Weather View 32 v70,2013-04-02 22:43:00,
2013-04-02 14:48:00,34.9,13.6,29.76,West,270,1.0,3.0,41,0.00,,,0.00,Weather View 32 v70,2013-04-02 22:48:00,
2013-04-02 14:53:00,34.9,13.0,29.76,West,266,0.0,3.0,40,0.00,,,0.00,Weather View 32 v70,2013-04-02 22:53:00,
2013-04-02 14:58:00,34.8,12.9,29.76,West,266,0.0,3.0,40,0.00,,,0.00,Weather View 32 v70,2013-04-02 22:58:00,
2013-04-02 15:03:00,35.0,14.2,29.76,West,266,3.0,3.0,42,0.00,,,0.00,Weather View 32 v70,2013-04-02 23:03:00,
2013-04-02 15:10:00,34.9,14.1,29.76,West,260,2.0,4.0,42,0.00,,,0.00,Weather View 32 v70,2013-04-02 23:10:00,
2013-04-02 15:15:00,34.7,14.5,29.76,WSW,251,2.0,4.0,43,0.00,,,0.00,Weather View 32 v70,2013-04-02 23:15:00,
2013-04-02 15:20:00,34.8,14.6,29.76,SW,223,2.0,6.0,43,0.00,,,0.00,Weather View 32 v70,2013-04-02 23:20:00,
2013-04-02 15:25:00,34.9,14.1,29.76,SW,223,0.0,6.0,42,0.00,,,0.00,Weather View 32 v70,2013-04-02 23:25:00,
2013-04-02 15:30:00,35.1,14.3,29.75,SW,223,2.0,6.0,42,0.00,,,0.00,Weather View 32 v70,2013-04-02 23:30:00,
2013-04-02 15:37:00,35.1,14.3,29.76,SW,221,3.0,6.0,42,0.00,,,0.00,Weather View 32 v70,2013-04-02 23:37:00,
2013-04-02 15:42:00,35.3,13.9,29.75,SW,221,1.0,6.0,41,0.00,,,0.00,Weather View 32 v70,2013-04-02 23:42:00,
2013-04-02 15:47:00,35.5,14.1,29.75,SW,221,1.0,6.0,41,0.00,,,0.00,Weather View 32 v70,2013-04-02 23:47:00,
2013-04-02 15:53:00,36.0,14.0,29.75,SW,221,1.0,6.0,40,0.00,,,0.00,Weather View 32 v70,2013-04-02 23:53:00,
2013-04-02 15:58:00,35.8,13.8,29.75,SW,221,0.0,6.0,40,0.00,,,0.00,Weather View 32 v70,2013-04-02 23:58:00,
2013-04-02 16:03:00,36.1,14.6,29.75,SW,221,0.0,6.0,41,0.00,,,0.00,Weather View 32 v70,2013-04-03 00:03:00,
2013-04-02 16:08:00,36.1,14.6,29.75,SW,221,0.0,6.0,41,0.00,,,0.00,Weather View 32 v70,2013-04-03 00:08:00,
2013-04-02 16:13:00,36.0,14.6,29.75,SW,221,0.0,6.0,41,0.00,,,0.00,Weather View 32 v70,2013-04-03 00:13:00,
2013-04-02 16:18:00,35.9,14.5,29.75,SW,221,1.0,6.0,41,0.00,,,0.00,Weather View 32 v70,2013-04-03 00:18:00,
2013-04-02 16:23:00,35.6,14.2,29.75,SW,221,0.0,6.0,41,0.00,,,0.00,Weather View 32 v70,2013-04-03 00:23:00,
2013-04-02 16:28:00,35.6,14.2,29.75,SW,221,0.0,6.0,41,0.00,,,0.00,Weather View 32 v70,2013-04-03 00:28:00,
2013-04-02 16:33:00,35.6,14.2,29.75,SW,221,2.0,6.0,41,0.00,,,0.00,Weather View 32 v70,2013-04-03 00:33:00,
2013-04-02 16:39:00,35.6,14.2,29.75,SW,221,3.0,5.0,41,0.00,,,0.00,Weather View 32 v70,2013-04-03 00:39:00,
2013-04-02 16:44:00,35.7,14.3,29.75,SW,221,0.0,5.0,41,0.00,,,0.00,Weather View 32 v70,2013-04-03 00:44:00,
2013-04-02 16:49:00,35.6,13.6,29.75,SW,221,1.0,5.0,41,0.00,,,0.00,Weather View 32 v70,2013-04-03 00:49:00,
2013-04-02 16:54:00,35.7,14.3,29.75,SW,221,1.0,5.0,41,0.00,,,0.00,Weather View 32 v70,2013-04-03 00:54:00,
2013-04-02 16:59:00,36.1,14.6,29.75,SW,221,2.0,5.0,41,0.00,,,0.00,Weather View 32 v70,2013-04-03 00:59:00,
2013-04-02 17:04:00,36.1,14.1,29.75,SW,221,1.0,5.0,40,0.00,,,0.00,Weather View 32 v70,2013-04-03 01:04:00,
2013-04-02 17:09:00,35.9,14.5,29.75,SW,221,0.0,5.0,41,0.00,,,0.00,Weather View 32 v70,2013-04-03 01:09:00,
2013-04-02 17:14:00,35.8,14.4,29.75,SW,221,0.0,5.0,41,0.00,,,0.00,Weather View 32 v70,2013-04-03 01:14:00,
2013-04-02 17:19:00,35.8,14.4,29.75,SW,221,1.0,5.0,41,0.00,,,0.00,Weather View 32 v70,2013-04-03 01:19:00,
2013-04-02 17:24:00,35.8,13.8,29.75,SW,221,2.0,5.0,40,0.00,,,0.00,Weather View 32 v70,2013-04-03 01:24:00,
2013-04-02 17:29:00,35.7,14.3,29.75,SW,221,3.0,5.0,41,0.00,,,0.00,Weather View 32 v70,2013-04-03 01:29:00,
2013-04-02 17:34:00,35.5,14.1,29.75,SW,221,1.0,5.0,41,0.00,,,0.00,Weather View 32 v70,2013-04-03 01:34:00,
2013-04-02 17:39:00,35.4,14.6,29.75,SW,221,0.0,5.0,42,0.00,,,0.00,Weather View 32 v70,2013-04-03 01:39:00,
2013-04-02 17:44:00,35.3,14.5,29.75,SW,221,1.0,5.0,42,0.00,,,0.00,Weather View 32 v70,2013-04-03 01:44:00,
2013-04-02 17:49:00,35.3,13.9,29.75,SW,221,1.0,4.0,41,0.00,,,0.00,Weather View 32 v70,2013-04-03 01:49:00,
2013-04-02 17:54:00,35.2,14.4,29.75,SW,221,3.0,4.0,42,0.00,,,0.00,Weather View 32 v70,2013-04-03 01:54:00,
2013-04-02 17:59:00,35.2,14.4,29.75,SW,221,2.0,4.0,42,0.00,,,0.00,Weather View 32 v70,2013-04-03 01:59:00,
2013-04-02 18:04:00,35.2,14.4,29.75,SW,221,1.0,4.0,42,0.00,,,0.00,Weather View 32 v70,2013-04-03 02:04:00,
2013-04-02 18:09:00,35.2,14.4,29.75,SW,221,1.0,4.0,42,0.00,,,0.00,Weather View 32 v70,2013-04-03 02:09:00,
2013-04-02 18:14:00,35.3,14.5,29.75,SW,221,0.0,4.0,42,0.00,,,0.00,Weather View 32 v70,2013-04-03 02:14:00,
2013-04-02 18:19:00,35.4,14.6,29.75,SW,221,1.0,4.0,42,0.00,,,0.00,Weather View 32 v70,2013-04-03 02:19:00,
2013-04-02 18:24:00,35.4,14.6,29.75,SW,221,2.0,4.0,42,0.00,,,0.00,Weather View 32 v70,2013-04-03 02:24:00,
2013-04-02 18:29:00,35.4,14.6,29.75,SW,221,0.0,4.0,42,0.00,,,0.00,Weather View 32 v70,2013-04-03 02:29:00,
2013-04-02 18:35:00,35.5,14.7,29.75,SW,221,0.0,4.0,42,0.00,,,0.00,Weather View 32 v70,2013-04-03 02:35:00,
2013-04-02 18:40:00,35.6,15.3,29.75,SW,221,0.0,4.0,43,0.00,,,0.00,Weather View 32 v70,2013-04-03 02:40:00,
2013-04-02 18:45:00,35.6,14.7,29.75,SW,221,0.0,4.0,42,0.00,,,0.00,Weather View 32 v70,2013-04-03 02:45:00,
2013-04-02 18:50:00,35.5,14.1,29.75,SW,221,0.0,4.0,41,0.00,,,0.00,Weather View 32 v70,2013-04-03 02:50:00,
2013-04-02 18:55:00,35.5,14.7,29.75,SW,221,0.0,4.0,42,0.00,,,0.00,Weather View 32 v70,2013-04-03 02:55:00,
2013-04-02 19:00:00,35.4,14.6,29.75,SW,221,0.0,3.0,42,0.00,,,0.00,Weather View 32 v70,2013-04-03 03:00:00,
2013-04-02 19:05:00,35.3,14.5,29.75,SW,221,0.0,3.0,42,0.00,,,0.00,Weather View 32 v70,2013-04-03 03:05:00,
2013-04-02 19:11:00,35.2,14.9,29.75,SW,221,0.0,3.0,43,0.00,,,0.00,Weather View 32 v70,2013-04-03 03:11:00,
2013-04-02 19:17:00,35.1,14.3,29.75,SW,221,0.0,3.0,42,0.00,,,0.00,Weather View 32 v70,2013-04-03 03:17:00,
2013-04-02 19:22:00,35.1,14.3,29.75,SW,221,0.0,3.0,42,0.00,,,0.00,Weather View 32 v70,2013-04-03 03:22:00,
2013-04-02 19:27:00,34.9,14.1,29.75,SW,221,0.0,3.0,42,0.00,,,0.00,Weather View 32 v70,2013-04-03 03:27:00,
2013-04-02 19:32:00,34.8,14.6,29.75,SW,221,0.0,3.0,43,0.00,,,0.00,Weather View 32 v70,2013-04-03 03:32:00,
2013-04-02 19:37:00,34.7,14.5,29.75,SW,221,0.0,3.0,43,0.00,,,0.00,Weather View 32 v70,2013-04-03 03:37:00,
2013-04-02 19:42:00,34.5,14.3,29.75,SW,221,0.0,3.0,43,0.00,,,0.00,Weather View 32 v70,2013-04-03 03:42:00,
2013-04-02 19:47:00,34.3,14.1,29.75,SW,221,1.0,3.0,43,0.00,,,0.00,Weather View 32 v70,2013-04-03 03:47:00,
2013-04-02 19:52:00,34.1,13.4,29.76,NNW,345,0.0,6.0,42,0.00,,,0.00,Weather View 32 v70,2013-04-03 03:52:00,
2013-04-02 19:57:00,33.8,13.1,29.75,North,0,2.0,6.0,42,0.00,,,0.00,Weather View 32 v70,2013-04-03 03:57:00,
2013-04-02 20:00:00,33.6,12.9,29.75,North,0,2.0,6.0,42,0.00,,,0.00,Weather View 32 v70,2013-04-03 04:00:00,
2013-04-02 20:05:00,33.4,12.2,29.75,North,353,2.0,6.0,41,0.00,,,0.00,Weather View 32 v70,2013-04-03 04:05:00,
2013-04-02 20:10:00,33.2,12.0,29.75,North,359,2.0,6.0,41,0.00,,,0.00,Weather View 32 v70,2013-04-03 04:10:00,
2013-04-02 20:15:00,32.9,11.8,29.75,NNE,25,4.0,6.0,41,0.00,,,0.00,Weather View 32 v70,2013-04-03 04:15:00,
2013-04-02 20:20:00,32.5,11.4,29.75,NNE,26,2.0,6.0,41,0.00,,,0.00,Weather View 32 v70,2013-04-03 04:20:00,
2013-04-02 20:25:00,32.2,11.1,29.75,NNE,31,3.0,7.0,41,0.00,,,0.00,Weather View 32 v70,2013-04-03 04:25:00,
2013-04-02 20:30:00,32.0,10.9,29.76,NNE,30,4.0,7.0,41,0.00,,,0.00,Weather View 32 v70,2013-04-03 04:30:00,
2013-04-02 20:35:00,31.6,10.6,29.76,NE,36,5.0,9.0,41,0.00,,,0.00,Weather View 32 v70,2013-04-03 04:35:00,
2013-04-02 20:40:00,31.4,10.9,29.76,NNE,19,3.0,11.0,42,0.00,,,0.00,Weather View 32 v70,2013-04-03 04:40:00,
2013-04-02 20:45:00,31.2,10.8,29.76,NNE,26,3.0,11.0,42,0.00,,,0.00,Weather View 32 v70,2013-04-03 04:45:00,
2013-04-02 20:50:00,31.0,10.6,29.76,NNE,24,8.0,11.0,42,0.00,,,0.00,Weather View 32 v70,2013-04-03 04:50:00,
2013-04-02 20:55:00,30.8,10.4,29.76,NNE,28,3.0,11.0,42,0.00,,,0.00,Weather View 32 v70,2013-04-03 04:55:00,
2013-04-02 21:00:00,30.6,10.2,29.77,NNE,31,5.0,11.0,42,0.00,,,0.00,Weather View 32 v70,2013-04-03 05:00:00,
2013-04-02 21:05:00,30.5,10.1,29.77,NNE,26,3.0,11.0,42,0.00,,,0.00,Weather View 32 v70,2013-04-03 05:05:00,
2013-04-02 21:10:00,30.3,10.5,29.77,NNE,25,7.0,11.0,43,0.00,,,0.00,Weather View 32 v70,2013-04-03 05:10:00,
2013-04-02 21:15:00,30.1,10.3,29.77,NNE,18,7.0,11.0,43,0.00,,,0.00,Weather View 32 v70,2013-04-03 05:15:00,
2013-04-02 21:20:00,29.9,10.1,29.78,NE,40,4.0,11.0,43,0.00,,,0.00,Weather View 32 v70,2013-04-03 05:20:00,
2013-04-02 21:25:00,29.7,9.9,29.77,NNE,28,3.0,11.0,43,0.00,,,0.00,Weather View 32 v70,2013-04-03 05:25:00,
2013-04-02 21:30:00,29.6,9.8,29.78,NNE,29,4.0,11.0,43,0.00,,,0.00,Weather View 32 v70,2013-04-03 05:30:00,
2013-04-02 21:35:00,29.5,9.7,29.78,NNE,30,3.0,11.0,43,0.00,,,0.00,Weather View 32 v70,2013-04-03 05:35:00,
2013-04-02 21:40:00,29.3,9.6,29.78,NNE,20,6.0,11.0,43,0.00,,,0.00,Weather View 32 v70,2013-04-03 05:40:00,
2013-04-02 21:45:00,29.2,9.5,29.78,NNE,32,4.0,11.0,43,0.00,,,0.00,Weather View 32 v70,2013-04-03 05:45:00,
2013-04-02 21:50:00,29.1,9.9,29.78,NNE,27,5.0,11.0,44,0.00,,,0.00,Weather View 32 v70,2013-04-03 05:50:00,
2013-04-02 21:55:00,28.9,9.7,29.78,NE,34,7.0,11.0,44,0.00,,,0.00,Weather View 32 v70,2013-04-03 05:55:00,
2013-04-02 22:00:00,28.7,9.5,29.78,NE,51,3.0,11.0,44,0.00,,,0.00,Weather View 32 v70,2013-04-03 06:00:00,
2013-04-02 22:05:00,28.6,9.4,29.78,NNE,28,5.0,11.0,44,0.00,,,0.00,Weather View 32 v70,2013-04-03 06:05:00,
2013-04-02 22:10:00,28.6,9.4,29.78,NNE,33,3.0,11.0,44,0.00,,,0.00,Weather View 32 v70,2013-04-03 06:10:00,
2013-04-02 22:15:00,28.4,9.3,29.78,NNE,23,6.0,12.0,44,0.00,,,0.00,Weather View 32 v70,2013-04-03 06:15:00,
2013-04-02 22:20:00,28.2,9.1,29.78,NE,34,3.0,12.0,44,0.00,,,0.00,Weather View 32 v70,2013-04-03 06:20:00,
2013-04-02 22:25:00,28.0,8.9,29.78,NNE,20,6.0,12.0,44,0.00,,,0.00,Weather View 32 v70,2013-04-03 06:25:00,
2013-04-02 22:30:00,27.8,8.7,29.79,NNE,30,3.0,12.0,44,0.00,,,0.00,Weather View 32 v70,2013-04-03 06:30:00,
2013-04-02 22:35:00,27.6,8.5,29.79,NNE,23,6.0,12.0,44,0.00,,,0.00,Weather View 32 v70,2013-04-03 06:35:00,
2013-04-02 22:40:00,27.6,8.5,29.79,NE,37,7.0,13.0,44,0.00,,,0.00,Weather View 32 v70,2013-04-03 06:40:00,
2013-04-02 22:45:00,27.4,8.3,29.79,NE,39,4.0,13.0,44,0.00,,,0.00,Weather View 32 v70,2013-04-03 06:45:00,
2013-04-02 22:50:00,27.4,8.3,29.79,NE,39,9.0,13.0,44,0.00,,,0.00,Weather View 32 v70,2013-04-03 06:50:00,
2013-04-02 22:55:00,27.2,8.7,29.79,NNE,30,4.0,13.0,45,0.00,,,0.00,Weather View 32 v70,2013-04-03 06:55:00,
2013-04-02 23:00:00,27.0,8.5,29.79,NNE,27,4.0,13.0,45,0.00,,,0.00,Weather View 32 v70,2013-04-03 07:00:00,
2013-04-02 23:05:00,26.9,8.4,29.80,NNE,28,5.0,13.0,45,0.00,,,0.00,Weather View 32 v70,2013-04-03 07:05:00,
2013-04-02 23:10:00,26.7,8.7,29.80,NNE,31,5.0,13.0,46,0.00,,,0.00,Weather View 32 v70,2013-04-03 07:10:00,
2013-04-02 23:15:00,26.5,8.5,29.80,NNE,29,6.0,13.0,46,0.00,,,0.00,Weather View 32 v70,2013-04-03 07:15:00,
2013-04-02 23:20:00,26.4,8.4,29.81,NNE,16,4.0,13.0,46,0.00,,,0.00,Weather View 32 v70,2013-04-03 07:20:00,
2013-04-02 23:25:00,26.2,8.2,29.80,NNE,26,6.0,13.0,46,0.00,,,0.00,Weather View 32 v70,2013-04-03 07:25:00,
2013-04-02 23:30:00,26.1,8.1,29.80,NNE,18,5.0,13.0,46,0.00,,,0.00,Weather View 32 v70,2013-04-03 07:30:00,
2013-04-02 23:35:00,25.9,8.0,29.81,NNE,25,3.0,13.0,46,0.00,,,0.00,Weather View 32 v70,2013-04-03 07:35:00,
2013-04-02 23:40:00,25.8,7.9,29.81,NNE,32,5.0,12.0,46,0.00,,,0.00,Weather View 32 v70,2013-04-03 07:40:00,
2013-04-02 23:45:00,25.7,8.2,29.81,NNE,16,6.0,11.0,47,0.00,,,0.00,Weather View 32 v70,2013-04-03 07:45:00,
2013-04-02 23:50:00,25.6,8.2,29.81,NNE,31,5.0,11.0,47,0.00,,,0.00,Weather View 32 v70,2013-04-03 07:50:00,
2013-04-02 23:55:00,25.5,7.6,29.81,NNE,20,3.0,11.0,46,0.00,,,0.00,Weather View 32 v70,2013-04-03 07:55:00,